Wind_Speed
28 27 27 27 27 27 23 18 23 23 21 20 15 15 14 15 17 19 21 18 17 15 14 13 15 15 15 15 15 17 19 18 18 20 21 18 22 26 27 29 26 24 23 22 23 24 26 24 22
31 29 28 29 28 25 17 18 28 23 23 18 16 15 16 19 17 19 20 19 16 15 16 15 15 15 16 16 17 17 19 18 17 19 20 21 22 25 26 30 30 26 20 23 23 24 25 24 23
32 32 32 31 29 25 15 20 30 28 18 20 16 16 16 20 18 23 23 17 17 15 15 16 16 16 17 17 18 17 18 19 18 20 19 19 21 26 21 20 18 27 12 15 19 22 23 26 24
34 35 34 32 28 24 26 24 33 29 24 21 18 18 16 22 20 21 21 23 20 15 16 17 17 18 18 20 20 19 19 18 18 21 18 18 19 12 24 15 20 19 15 10 11 15 20 23 26
34 36 36 34 28 27 28 32 39 28 27 21 21 19 18 20 20 20 21 23 22 18 15 16 16 16 18 19 21 21 20 19 18 19 19 18 20 14 20 32 26 16 19 14 13 16 17 23 27
36 37 38 36 28 27 32 34 37 31 28 24 24 21 19 25 19 19 22 22 23 21 17 15 14 14 15 17 20 20 20 20 20 22 18 20 14 15 11 8 16 17 11 10 15 18 21 25 27
37 39 40 37 33 25 29 38 39 31 30 27 26 24 22 27 17 19 23 24 24 23 18 15 15 14 16 16 19 19 19 19 21 23 21 18 14 16 20 23 23 21 22 20 20 17 15 21 27
42 41 43 41 38 34 31 42 38 37 32 37 27 26 28 26 16 20 23 25 26 25 22 18 16 16 15 16 18 18 18 19 20 22 22 18 15 17 13 14 20 18 20 22 21 19 15 17 24
44 46 45 43 42 32 34 42 36 41 39 38 33 33 36 23 22 21 23 25 27 28 23 22 19 16 15 15 18 18 19 19 20 21 20 20 17 16 17 17 19 20 21 23 21 18 21 24 25
47 48 48 45 43 37 40 42 39 46 43 43 38 35 34 32 27 24 25 25 28 30 25 24 24 18 16 17 18 18 19 19 20 21 20 20 19 17 19 19 18 18 22 22 20 21 24 20 29
48 47 47 48 48 43 42 44 43 48 46 44 45 39 38 36 28 26 25 28 31 32 25 28 28 23 17 17 18 19 18 20 21 22 19 20 19 17 19 18 16 17 25 23 20 20 17 19 25
54 49 49 49 52 51 45 46 49 51 51 46 48 45 44 36 32 29 29 30 34 33 28 30 32 27 21 18 19 21 18 19 23 25 20 18 18 20 20 18 14 14 20 21 22 21 18 22 26
54 54 53 53 53 54 50 51 52 51 52 49 50 49 45 41 37 35 33 33 35 36 31 30 34 28 25 20 21 22 20 20 24 27 24 18 19 18 18 17 14 15 20 22 21 24 20 24 25
56 55 57 56 56 54 53 53 53 51 51 52 51 50 47 44 42 42 38 34 35 37 33 31 32 34 25 24 23 23 21 21 24 27 27 20 21 18 16 16 16 15 21 25 27 22 25 25 25
57 57 57 56 56 55 54 54 52 52 50 51 50 51 48 46 46 46 43 35 36 38 35 30 31 37 27 26 25 25 21 22 24 27 28 21 20 19 18 16 18 15 19 26 28 21 29 26 29
55 58 58 54 57 57 57 52 50 48 49 47 50 49 51 47 46 47 47 37 37 40 36 31 32 36 30 29 26 26 24 22 22 26 28 24 21 22 21 19 20 20 15 22 33 29 29 31 34
54 59 56 56 52 55 60 54 46 46 48 49 44 43 47 49 47 47 46 41 39 39 33 32 33 34 33 32 27 28 24 22 22 23 28 26 23 23 24 21 21 26 27 24 31 35 35 34 33
42 49 51 50 50 51 60 56 51 48 52 50 46 44 46 47 48 48 44 43 42 40 35 34 33 35 34 34 29 29 26 24 24 23 26 27 25 25 24 26 24 26 28 28 30 36 38 36 39
49 50 49 51 37 41 55 60 57 52 49 52 47 49 50 48 49 48 46 47 44 42 36 35 34 34 34 34 31 30 32 28 25 24 26 28 26 27 26 28 27 25 31 29 31 31 31 35 37
51 50 52 46 47 48 52 60 57 54 53 53 50 51 48 50 50 47 48 48 44 42 38 36 35 35 33 33 32 32 35 31 28 25 25 28 28 29 27 28 29 26 27 33 35 35 37 32 35
51 53 45 52 47 39 53 60 57 51 53 52 50 51 52 50 50 49 48 46 43 43 40 38 35 34 32 33 33 35 36 33 30 25 25 28 29 32 28 28 30 27 28 29 34 38 38 31 36
56 49 51 53 54 53 45 53 42 48 49 53 55 54 51 51 51 48 46 44 45 42 41 39 37 36 33 35 34 38 36 36 32 27 27 29 29 31 29 28 29 28 27 30 31 39 40 36 36
54 51 50 48 45 56 52 50 40 38 43 50 54 51 51 53 51 49 46 46 44 43 41 39 39 36 33 36 36 38 37 40 35 32 29 29 30 31 31 28 29 28 27 33 30 40 42 39 39
55 56 51 52 44 43 48 49 45 27 32 40 50 43 46 47 47 47 46 44 44 45 41 42 39 37 34 36 37 38 40 43 39 34 31 30 31 32 31 30 31 30 31 33 30 39 46 44 42
58 58 47 38 40 51 41 41 50 30 24 26 37 42 38 42 44 45 43 43 43 43 41 38 38 36 36 36 39 38 41 43 41 36 33 30 31 32 32 31 31 32 34 34 38 35 48 47 39
46 42 43 44 40 53 39 33 37 30 35 43 42 34 33 37 39 42 45 45 43 43 40 37 35 35 38 39 40 40 41 43 41 39 34 31 31 31 30 31 30 33 37 35 33 41 47 48 40
34 45 39 39 32 29 23 35 37 30 34 47 41 36 32 31 35 42 41 44 44 43 42 40 38 35 36 37 38 41 42 44 41 40 35 31 29 30 27 28 30 32 34 32 33 36 48 51 46
29 35 37 44 40 30 30 27 28 25 31 35 33 32 33 34 36 37 41 43 45 44 41 41 39 38 37 36 38 43 44 45 42 40 32 30 28 27 25 24 28 28 30 39 33 38 51 51 46
16 33 37 32 39 35 29 27 24 22 29 30 28 36 32 32 37 40 40 40 42 43 40 39 38 37 36 35 39 45 47 46 42 37 30 28 28 24 21 23 24 26 34 30 29 36 37 42 45
16 17 31 36 33 37 31 24 20 29 37 30 34 31 26 27 34 38 39 40 38 38 37 36 36 36 34 35 40 47 48 43 41 35 28 26 26 22 17 21 20 26 20 27 27 31 36 46 43
Wind_Direction
260 255 253 252 256 258 264 261 253 256 252 250 256 260 260 274 283 282 295 297 286 284 292 298 296 297 299 305 304 310 308 311 310 303 300 294 285 273 263 255 252 254 255 251 233 233 225 214 212
257 253 250 250 252 260 263 268 254 253 251 251 255 261 266 275 279 278 280 290 289 286 293 300 300 298 298 302 306 310 312 314 316 315 307 296 293 282 262 250 239 244 238 251 240 223 220 214 208
255 252 249 247 248 249 237 254 254 252 253 253 255 257 265 270 281 287 293 293 292 288 292 297 301 296 300 301 301 307 314 314 316 315 307 297 301 297 246 175 251 220 227 243 231 222 216 214 211
255 252 248 246 246 244 240 233 251 252 254 253 251 253 258 265 274 284 299 299 298 297 295 296 299 297 300 304 305 308 312 309 313 312 307 303 298 283 254 212 270 221 200 220 209 209 217 219 216
255 249 246 245 240 242 249 240 252 254 256 254 251 254 254 258 269 278 290 294 293 294 289 290 296 296 296 298 300 301 305 309 308 307 302 302 299 287 277 254 248 187 210 197 211 210 209 220 218
254 246 247 247 240 244 246 249 250 250 255 254 251 252 250 255 262 272 280 286 289 289 287 286 289 295 294 292 291 296 302 309 312 307 300 297 291 273 237 220 213 271 248 222 223 220 205 212 216
253 250 246 248 240 233 250 246 248 251 252 253 247 247 248 252 258 264 271 278 281 283 282 284 289 294 294 290 287 294 300 308 313 311 304 286 291 267 264 248 249 247 247 233 234 226 233 226 215
256 250 245 244 246 237 241 246 248 249 250 248 250 248 248 250 247 256 265 272 275 281 284 282 286 289 286 288 286 290 296 303 307 313 307 287 286 270 283 245 240 250 239 228 233 225 222 223 225
259 252 248 246 248 244 242 245 249 250 247 248 246 244 248 252 243 246 258 266 273 278 283 284 281 283 284 281 281 289 295 301 306 312 304 285 282 267 262 262 249 250 246 232 229 229 236 243 229
257 257 252 253 252 243 237 238 242 248 251 253 249 247 253 255 246 243 252 260 268 273 277 280 278 274 279 286 285 288 292 298 304 311 303 289 278 283 265 266 267 257 230 233 219 233 244 240 238
253 253 254 251 251 244 239 237 237 246 246 253 255 255 253 251 252 247 248 255 260 267 274 276 275 273 274 279 285 286 290 298 304 309 304 295 278 279 276 266 273 250 231 226 221 222 219 235 224
250 247 249 250 250 246 241 240 237 239 246 247 256 255 255 260 258 255 251 251 257 263 269 271 276 279 278 279 284 288 291 298 303 308 310 300 283 283 280 263 269 243 223 224 219 212 222 219 213
247 246 246 248 249 249 242 240 242 241 247 250 252 257 257 259 258 258 252 251 255 262 265 269 277 279 279 279 284 289 293 298 302 307 311 302 285 279 276 257 262 234 225 221 230 224 228 219 211
248 244 244 245 248 247 247 244 242 243 246 249 253 256 257 260 257 256 254 251 254 258 261 267 272 277 277 278 279 285 292 296 302 305 308 306 289 278 269 260 252 238 224 220 224 225 231 221 220
244 245 244 244 248 249 247 245 247 247 247 248 250 256 257 255 257 257 258 253 253 255 259 263 270 274 276 275 276 281 286 292 301 304 305 305 294 285 270 262 249 249 232 224 225 206 222 222 221
242 243 243 242 247 248 249 245 246 246 247 246 247 250 256 255 255 256 259 259 256 257 259 262 268 274 274 269 270 278 284 289 297 303 303 303 297 286 277 268 252 243 245 238 232 230 217 218 227
238 240 243 244 245 251 247 244 245 244 246 245 245 246 251 256 256 255 257 260 261 262 261 262 264 271 274 267 269 275 280 286 294 302 303 301 294 285 277 265 259 249 251 249 233 233 236 239 234
257 257 254 251 250 250 251 247 245 241 245 244 243 245 247 251 254 258 260 262 262 265 264 264 265 269 271 266 265 270 274 276 286 296 298 298 293 287 278 266 257 255 251 256 237 232 235 236 243
263 257 260 250 250 254 247 248 243 241 240 245 242 243 245 249 253 256 259 260 262 265 265 264 266 267 268 268 263 267 272 273 276 290 294 294 289 285 280 265 257 263 256 267 239 229 238 236 233
266 266 257 255 257 254 245 244 245 243 241 241 242 242 244 246 250 253 256 259 259 262 262 264 265 266 265 267 264 264 271 274 271 282 291 290 289 283 281 266 253 256 267 277 233 219 227 236 237
261 262 265 258 255 255 255 244 242 244 246 244 243 243 243 246 248 251 253 256 258 260 261 260 262 264 265 266 265 265 272 275 271 283 291 286 286 282 284 267 259 254 265 275 240 226 218 231 231
252 257 255 254 254 255 256 248 252 246 249 246 243 241 244 246 248 250 252 253 256 257 259 258 259 264 264 266 267 268 272 277 274 280 287 286 285 281 285 271 257 257 259 262 236 235 218 229 227
248 246 245 250 254 252 248 250 246 244 244 246 245 246 245 245 247 249 250 250 253 253 255 254 256 260 260 264 267 268 273 276 274 280 282 283 287 280 281 273 255 254 260 270 248 233 226 225 231
236 233 237 242 246 249 247 246 241 244 252 250 247 241 247 245 247 247 247 248 249 251 249 249 251 253 255 259 262 263 267 273 274 277 282 283 290 283 274 275 253 253 258 266 248 231 227 227 230
228 229 230 236 231 247 250 247 240 239 228 230 247 243 244 245 245 245 243 243 246 248 247 245 244 247 252 255 257 258 262 269 273 276 283 285 291 284 274 278 261 252 259 256 253 229 221 221 227
232 223 223 228 232 243 243 231 244 242 238 246 248 252 249 244 242 242 242 242 242 243 241 239 240 247 252 254 255 257 260 264 268 273 282 285 290 284 272 274 262 264 264 273 234 230 220 224 227
236 226 218 219 231 236 236 246 240 236 246 248 249 248 246 242 240 241 240 241 243 242 241 239 243 246 249 253 254 255 257 261 264 272 278 281 285 276 270 267 261 273 265 274 236 227 215 221 225
233 223 211 218 222 223 229 229 240 247 238 244 243 242 242 239 239 239 238 240 242 244 243 242 243 244 247 249 250 251 253 256 262 272 271 277 278 276 267 273 265 272 276 261 245 222 222 223 220
242 206 211 220 223 219 226 230 219 235 239 238 234 241 240 238 234 236 239 240 243 245 245 243 241 242 244 246 246 249 250 255 262 268 264 272 273 274 266 271 276 275 277 246 234 224 224 214 219
186 228 208 218 212 219 222 222 229 220 237 248 247 236 236 235 237 237 241 243 244 247 247 245 244 243 241 240 242 246 248 255 258 262 259 267 270 275 269 270 277 274 267 233 233 223 221 217 220
Height
5831 5831 5831 5832 5834 5833 5834 5836 5836 5834 5834 5833 5833 5833 5833 5831 5829 5829 5823 5823 5823 5822 5821 5819 5818 5817 5816 5815 5814 5814 5812 5810 5809 5807 5805 5803 5800 5798 5796 5796 5797 5797 5799 5802 5803 5807 5810 5812 5814
5826 5826 5827 5826 5828 5828 5833 5834 5829 5830 5828 5829 5829 5828 5828 5826 5825 5823 5821 5820 5820 5819 5818 5817 5816 5815 5814 5812 5811 5811 5810 5808 5807 5804 5801 5798 5797 5792 5789 5786 5790 5792 5794 5797 5799 5801 5805 5809 5811
5820 5821 5821 5820 5822 5824 5832 5832 5825 5824 5825 5824 5824 5824 5823 5821 5820 5818 5816 5816 5815 5814 5814 5814 5813 5812 5811 5811 5809 5808 5807 5806 5804 5802 5799 5795 5793 5785 5781 5778 5787 5783 5788 5792 5795 5798 5802 5805 5808
5813 5815 5815 5814 5817 5821 5821 5823 5817 5818 5819 5820 5820 5820 5819 5816 5816 5814 5813 5812 5811 5811 5810 5810 5810 5809 5808 5808 5807 5806 5804 5803 5802 5800 5797 5793 5791 5790 5782 5789 5789 5787 5782 5787 5791 5794 5799 5803 5806
5806 5808 5808 5808 5812 5815 5814 5814 5810 5815 5814 5815 5815 5815 5814 5812 5811 5812 5810 5809 5809 5809 5808 5807 5806 5806 5805 5804 5803 5802 5802 5801 5799 5797 5794 5792 5789 5787 5784 5786 5785 5765 5780 5785 5788 5791 5795 5799 5803
5800 5801 5802 5802 5807 5809 5808 5806 5806 5809 5809 5810 5810 5811 5810 5805 5807 5808 5808 5807 5807 5806 5806 5804 5803 5803 5802 5801 5800 5799 5799 5797 5796 5793 5792 5790 5788 5785 5784 5785 5784 5779 5783 5782 5785 5788 5789 5794 5799
5794 5794 5795 5797 5799 5802 5802 5799 5799 5804 5803 5804 5805 5806 5807 5800 5803 5804 5804 5804 5804 5803 5803 5801 5800 5798 5798 5798 5796 5795 5795 5794 5793 5790 5787 5786 5786 5783 5782 5783 5782 5783 5784 5783 5785 5787 5790 5792 5795
5786 5787 5786 5789 5791 5794 5795 5791 5794 5795 5797 5793 5800 5801 5801 5796 5801 5801 5800 5800 5800 5800 5800 5799 5797 5796 5794 5794 5793 5792 5791 5790 5789 5787 5784 5784 5782 5780 5779 5778 5779 5779 5782 5780 5782 5785 5786 5788 5793
5778 5778 5778 5782 5784 5789 5788 5785 5787 5786 5788 5787 5790 5793 5791 5797 5796 5796 5796 5796 5795 5795 5796 5796 5794 5793 5792 5791 5790 5788 5788 5786 5785 5783 5781 5780 5779 5778 5777 5777 5778 5778 5778 5779 5780 5783 5785 5786 5789
5768 5770 5773 5775 5776 5780 5778 5778 5779 5776 5779 5780 5783 5786 5787 5789 5791 5791 5791 5791 5790 5790 5792 5791 5790 5788 5788 5788 5786 5785 5784 5783 5782 5779 5777 5776 5776 5774 5774 5774 5774 5773 5775 5777 5777 5780 5782 5780 5784
5757 5761 5763 5766 5765 5768 5770 5770 5771 5769 5771 5773 5773 5777 5780 5782 5786 5786 5786 5786 5785 5784 5786 5786 5786 5785 5783 5782 5782 5781 5780 5779 5778 5777 5774 5773 5772 5772 5770 5770 5769 5769 5771 5775 5775 5776 5778 5779 5781
5743 5748 5750 5753 5754 5756 5760 5761 5761 5760 5761 5766 5766 5769 5769 5776 5779 5781 5781 5781 5781 5779 5779 5780 5780 5782 5780 5778 5777 5778 5776 5775 5774 5772 5771 5769 5768 5767 5766 5766 5766 5765 5767 5770 5773 5774 5775 5777 5780
5731 5734 5735 5739 5742 5744 5748 5750 5752 5755 5755 5758 5759 5760 5763 5768 5771 5773 5775 5775 5775 5774 5774 5775 5774 5777 5777 5774 5774 5773 5772 5771 5770 5768 5767 5765 5765 5763 5762 5763 5763 5763 5764 5766 5770 5772 5774 5776 5776
5719 5719 5722 5725 5729 5732 5736 5740 5741 5748 5748 5749 5752 5753 5756 5759 5763 5764 5766 5769 5770 5769 5769 5769 5770 5771 5773 5770 5769 5769 5767 5766 5766 5764 5763 5761 5760 5759 5760 5760 5761 5761 5761 5764 5766 5767 5770 5772 5773
5705 5707 5708 5715 5718 5720 5722 5727 5732 5736 5738 5740 5743 5743 5747 5750 5752 5753 5757 5762 5763 5762 5763 5765 5765 5765 5769 5766 5765 5764 5763 5762 5762 5760 5759 5757 5756 5755 5755 5756 5757 5757 5758 5760 5762 5764 5766 5768 5770
5691 5694 5698 5705 5704 5707 5706 5719 5723 5724 5726 5731 5733 5736 5736 5739 5743 5745 5747 5753 5756 5755 5757 5758 5759 5761 5763 5762 5760 5759 5758 5758 5758 5757 5756 5754 5752 5751 5751 5752 5753 5754 5754 5756 5758 5760 5763 5765 5766
5680 5680 5685 5690 5692 5693 5696 5706 5712 5713 5715 5718 5724 5727 5728 5730 5733 5736 5740 5744 5746 5748 5751 5752 5753 5755 5756 5756 5755 5754 5754 5753 5753 5752 5751 5750 5748 5748 5748 5748 5748 5749 5750 5752 5753 5755 5759 5762 5764
5670 5669 5672 5676 5683 5682 5684 5692 5697 5702 5704 5710 5715 5718 5719 5721 5724 5727 5732 5735 5737 5740 5745 5746 5747 5749 5750 5750 5749 5748 5747 5747 5747 5746 5746 5745 5744 5743 5743 5743 5743 5744 5746 5746 5748 5749 5751 5755 5758
5655 5658 5659 5666 5671 5669 5673 5675 5682 5689 5695 5698 5705 5708 5710 5714 5716 5720 5722 5725 5729 5732 5736 5738 5739 5741 5743 5744 5744 5742 5741 5741 5741 5740 5740 5740 5739 5738 5738 5737 5737 5737 5738 5739 5742 5742 5746 5749 5751
5645 5646 5650 5655 5657 5654 5659 5661 5670 5677 5683 5687 5693 5698 5701 5704 5708 5710 5713 5716 5720 5724 5727 5729 5732 5732 5735 5737 5737 5736 5734 5736 5735 5734 5734 5734 5733 5733 5732 5731 5730 5731 5731 5732 5734 5736 5741 5743 5746
5636 5636 5642 5641 5644 5643 5646 5650 5658 5667 5672 5677 5683 5687 5690 5695 5698 5700 5704 5707 5711 5714 5718 5721 5723 5725 5727 5729 5729 5729 5729 5730 5729 5729 5728 5728 5727 5727 5726 5725 5724 5725 5726 5726 5728 5731 5735 5738 5740
5617 5630 5628 5628 5630 5632 5642 5638 5649 5658 5662 5665 5669 5675 5681 5684 5687 5691 5695 5698 5700 5703 5707 5712 5715 5716 5719 5720 5721 5722 5722 5723 5723 5723 5722 5721 5721 5721 5720 5719 5719 5718 5718 5720 5722 5724 5729 5732 5735
5610 5615 5613 5616 5616 5623 5629 5634 5642 5647 5651 5655 5658 5665 5668 5673 5678 5681 5685 5689 5691 5693 5698 5702 5705 5708 5711 5712 5713 5714 5716 5716 5716 5716 5715 5715 5715 5714 5714 5713 5712 5711 5711 5711 5714 5718 5722 5726 5729
5594 5591 5599 5602 5607 5605 5621 5628 5632 5640 5643 5644 5647 5652 5657 5662 5667 5671 5675 5679 5682 5684 5689 5691 5695 5699 5703 5704 5705 5707 5709 5709 5710 5711 5709 5708 5707 5707 5707 5705 5706 5704 5703 5704 5706 5709 5715 5720 5724
5568 5576 5584 5591 5594 5599 5618 5614 5622 5630 5636 5639 5635 5642 5648 5652 5656 5661 5665 5669 5672 5676 5678 5682 5686 5690 5693 5696 5697 5699 5701 5701 5702 5704 5703 5701 5700 5700 5698 5697 5697 5698 5698 5697 5698 5701 5706 5712 5717
5551 5562 5572 5580 5587 5598 5604 5605 5615 5621 5625 5625 5630 5634 5639 5642 5646 5650 5654 5658 5662 5666 5670 5673 5678 5681 5684 5686 5688 5690 5693 5694 5696 5697 5697 5695 5693 5692 5691 5689 5689 5689 5688 5687 5688 5690 5697 5704 5709
5545 5548 5565 5577 5586 5591 5597 5600 5606 5612 5613 5615 5621 5627 5630 5634 5637 5641 5645 5648 5652 5657 5661 5664 5668 5672 5675 5677 5680 5683 5685 5687 5689 5690 5691 5689 5687 5686 5685 5684 5682 5680 5679 5679 5680 5681 5688 5695 5702
5535 5547 5557 5565 5574 5581 5589 5596 5602 5604 5606 5607 5612 5617 5622 5627 5630 5632 5635 5638 5642 5646 5652 5655 5659 5663 5666 5669 5672 5674 5677 5678 5682 5683 5685 5682 5682 5681 5680 5677 5675 5674 5672 5671 5671 5675 5680 5687 5695
5536 5539 5551 5561 5568 5576 5585 5590 5600 5604 5600 5604 5604 5607 5613 5618 5622 5625 5627 5631 5633 5637 5642 5647 5650 5653 5656 5660 5663 5665 5668 5671 5674 5677 5677 5676 5676 5676 5673 5671 5670 5668 5664 5663 5666 5670 5674 5681 5689
5530 5539 5547 5552 5561 5569 5578 5587 5590 5596 5593 5598 5597 5600 5605 5609 5612 5616 5620 5623 5626 5629 5633 5638 5642 5644 5647 5651 5654 5657 5660 5664 5667 5669 5670 5671 5671 5671 5667 5666 5665 5663 5658 5659 5661 5665 5671 5677 5683